TimeMDT,TemperatureF,Dew PointF,Humidity,Sea Level PressureIn,VisibilityMPH,Wind Direction,Wind SpeedMPH,Gust SpeedMPH,PrecipitationIn,Events,Conditions,WindDirDegrees,DateUTC
12:53 AM,50.0,41.0,71,30.08,10.0,East,4.6,-,N/A,,Clear,90,2013-05-11 06:53:00
1:53 AM,48.0,41.0,77,30.11,10.0,East,5.8,-,N/A,,Clear,90,2013-05-11 07:53:00
2:53 AM,48.9,41.0,74,30.12,10.0,East,8.1,-,N/A,,Clear,90,2013-05-11 08:53:00
3:53 AM,48.9,41.0,74,30.10,10.0,East,3.5,-,N/A,,Clear,100,2013-05-11 09:53:00
4:53 AM,46.9,41.0,80,30.10,10.0,SSE,6.9,-,N/A,,Clear,150,2013-05-11 10:53:00
5:53 AM,46.9,39.9,77,30.12,10.0,East,8.1,-,N/A,,Clear,80,2013-05-11 11:53:00
6:53 AM,48.9,41.0,74,30.14,10.0,East,8.1,-,N/A,,Clear,80,2013-05-11 12:53:00
7:53 AM,54.0,43.0,66,30.15,10.0,ENE,10.4,-,N/A,,Clear,70,2013-05-11 13:53:00
8:53 AM,60.1,41.0,49,30.16,10.0,ENE,13.8,-,N/A,,Clear,60,2013-05-11 14:53:00
9:53 AM,63.0,41.0,45,30.16,10.0,East,11.5,20.7,N/A,,Scattered Clouds,90,2013-05-11 15:53:00
10:53 AM,66.0,39.9,38,30.16,10.0,East,15.0,20.7,N/A,,Mostly Cloudy,100,2013-05-11 16:53:00
11:53 AM,70.0,39.0,32,30.16,10.0,East,16.1,26.5,N/A,,Scattered Clouds,90,2013-05-11 17:53:00
12:53 PM,73.0,37.9,28,30.13,10.0,East,17.3,25.3,N/A,,Scattered Clouds,80,2013-05-11 18:53:00
1:53 PM,73.0,35.1,25,30.12,10.0,East,13.8,21.9,N/A,,Scattered Clouds,80,2013-05-11 19:53:00
2:53 PM,73.0,33.1,23,30.10,10.0,East,9.2,-,N/A,,Mostly Cloudy,80,2013-05-11 20:53:00
3:53 PM,73.9,33.1,22,30.06,10.0,ENE,10.4,23.0,N/A,,Partly Cloudy,70,2013-05-11 21:53:00
4:53 PM,73.9,32.0,21,30.06,10.0,East,9.2,-,N/A,,Partly Cloudy,90,2013-05-11 22:53:00
5:53 PM,73.0,32.0,22,30.06,10.0,East,15.0,24.2,N/A,,Mostly Cloudy,90,2013-05-11 23:53:00
6:53 PM,73.0,28.9,20,30.06,10.0,East,13.8,20.7,N/A,,Partly Cloudy,100,2013-05-12 00:53:00
8:53 PM,64.9,30.0,27,30.08,10.0,East,6.9,-,N/A,,Partly Cloudy,80,2013-05-12 02:53:00
9:53 PM,60.1,28.9,31,30.10,10.0,ENE,5.8,-,N/A,,Partly Cloudy,70,2013-05-12 03:53:00
10:53 PM,64.9,34.0,32,30.11,10.0,SE,12.7,-,N/A,,Clear,130,2013-05-12 04:53:00
11:53 PM,59.0,36.0,42,30.12,10.0,Calm,Calm,-,N/A,,Clear,0,2013-05-12 05:53:00